Location: Kaseke
(18.0171°S, 31.0526°E)
Time: 11:24:18
(UTC+00:00)

USA 229 - Pass Details

Date: 14 July 2020
Orbit: 980 x 1233 km, 63.4° (Epoch: 24 June)

Event Time Altitude Azimuth Distance (km) Brightness Sun altitude
Rises 03:47:55 0° 199° (SSW) 3,795 6.2 -9.6°
Reaches altitude 10° 03:50:39 10° 194° (SSW) 2,810 5.6 -9.0°
Maximum altitude 03:57:04 55° 117° (ESE) 1,172 4.3 -7.6°
Drops below altitude 10° 04:03:16 10° 40° (NE) 2,721 6.9 -6.2°
Sets 04:05:52 0° 35° (NE) 3,666 7.6 -5.6°
